User: anonymous   Login
Location: Kelshall
(52.0000°N, 0.0500°W)
Time: 06:30:25
(UTC+00:00)
Language:

CREW DRAGON DEMO-1 DEB - Orbit

View from above orbital plane
View from above orbital plane
View from above satellite
View from above satellite

Ground track
Ground track

The orbit data is extracted from the following two-line orbital elements,

1 44064U 19011B   20339.58243583  .00037911  00000-0  29479-3 0  9990
2 44064  51.6302 167.3898 0001479 314.5309  45.5568 15.71369394 99598
Epoch (UTC): 04 December 2020 13:58:42
Eccentricity: 0.0001479
inclination: 51.6302°
perigee height: 354 km
apogee height: 356 km
right ascension of ascending node: 167.3898°
argument of perigee: 314.5309°
revolutions per day: 15.71369394
mean anomaly at epoch: 45.5568°
orbit number at epoch: 9959

The dashed part of the orbit path shows where the satellite is in the earth's shadow,  

DLR